Location: �perlecques
(50.8057°N, 2.1521°E)
Time: 20:10:03
(UTC+00:00)

Tiros 1 - Pass Details

Date: 03 August 2021
Orbit: 630 x 663 km, 48.4° (Epoch: 28 September)

Event Time Altitude Azimuth Distance (km) Brightness Sun altitude
Rises 20:35:49 0° 273° (W) 2,980 11.4 -8.9°
Reaches altitude 10° 20:38:12 10° 269° (W) 2,062 10.5 -9.2°
Maximum altitude 20:42:53 60° 190° (S) 742 7.3 -9.7°
Enters shadow 20:47:12 12° 112° (ESE) 1,924 9.0 -10.2°
Drops below altitude 10° 20:47:30 10° 111° (ESE) 2,038 - -10.2°
Sets 20:49:51 0° 108° (ESE) 2,941 - -10.5°
